Regional Weather Roundup
Issued by NWS

Home | Current Version | Previous Version | Graphics & Text | Print | Product List | Glossary On
Versions: 1 2 3 4 5 6 7 8 9 10 11 12 13 14 15 16 17 18 19 20 21 22 23 24 25 26 27 28 29 30 31 32 33 34 35 36 37 38 39 40 41 42 43 44 45 46 47 48 49 50
000
ASUS43 KDTX 191310
RWRMI
MICHIGAN HOURLY REGIONAL WEATHER ROUNDUP
NATIONAL WEATHER SERVICE DETROIT/PONTIAC MI
900 AM EDT SAT APR 19 2014

NOTE: "FAIR" INDICATES FEW OR NO CLOUDS BELOW 12,000 FEET WITH NO
SIGNIFICANT WEATHER AND/OR OBSTRUCTION TO VISIBILITY.

MIZ047>049-052>055-059>063-066>070-074>076-081>083-191400-
SOUTHEAST LOWER MICHIGAN

CITY           SKY/WX    TMP DP  RH WIND       PRES   REMARKS
ADRIAN         SUNNY     39  29  67 E12       30.44R
ALMA           SUNNY     36  30  81 NE9       30.48S
ANN ARBOR      SUNNY     39  29  67 E7G16     30.44R
BAD AXE        SUNNY     37  33  85 NE7       30.49R
DETROIT CITY   SUNNY     40  29  64 NE9       30.47R
DETROIT        MOSUNNY   40  30  67 NE10      30.46R
FLINT          SUNNY     39  31  72 NE8       30.47R
GROSSE ILE     SUNNY     39  32  75 NE12      30.44R
HILLSDALE      SUNNY     39  29  68 E13       30.41S
HOWELL         SUNNY     36  31  80 E5        30.45R

CITY           SKY/WX    TMP DP  RH WIND       PRES   REMARKS
JACKSON        SUNNY     38  29  70 NE7       30.44R
LAMBERTVILLE   SUNNY     41  30  65 NE6       30.45R
LANSING        SUNNY     37  30  75 E12       30.47R
LAPEER         NOT AVBL
MASON          SUNNY     36  30  81 NE12      30.45S
MONROE         SUNNY     39  30  70 NE9       30.43R
MT. CLEMENS    SUNNY     38  32  78 NE8       30.45R
PONTIAC        MOSUNNY   37  29  72 NE8       30.44R
PORT HOPE        N/A     36  32  85 NE14      30.48R
PORT HURON     MOSUNNY   37  34  87 N7        30.47R
TRI CITIES     MOSUNNY   38  32  79 NE9       30.49R
YPSILANTI      SUNNY     42  29  59 NE10      30.45R
$$
MIZ043>046-050>051-056>058-064>065-071>073-077>080-191400-
SOUTHWEST LOWER MICHIGAN

CITY           SKY/WX    TMP DP  RH WIND       PRES   REMARKS
BATTLE CREEK   SUNNY     38  27  64 E12       30.43S
BENTON HARBOR  SUNNY     40  33  76 E13       30.40R
BIG RAPIDS     SUNNY     34  29  82 E8        30.46S
COLDWATER      SUNNY     38  30  71 E12       30.42S
HOLLAND        SUNNY     39  30  70 E15       30.44R
GRAND RAPIDS   SUNNY     38  28  67 E12       30.45R
KALAMAZOO      SUNNY     39  28  64 E8        30.43R
MARSHALL       SUNNY     37  29  72 E10       30.43S
MUSKEGON       MOSUNNY   38  26  62 E12       30.44F
$$
MIZ016>042-191400-
NORTHERN LOWER MICHIGAN

CITY           SKY/WX    TMP DP  RH WIND       PRES   REMARKS
ALPENA         SUNNY     36  31  82 NE8       30.51S
BEAVER ISLAND  CLOUDY    29  28  97 E9        30.49F FOG
BELLAIRE       SUNNY     33  30  88 CALM      30.50R
CADILLAC       SUNNY     32  30  90 E7        30.44R
CHARLEVOIX     SUNNY     33  31  92 SE10      30.53R
FRANKFORT      SUNNY     34  29  82 SE7       30.47S
GAYLORD        SUNNY     32  29  88 VRB5      30.47R
GRAYLING       PTSUNNY   29  29 100 E6        30.48S
HARBOR SPRINGS CLOUDY    31  31  98 E8        30.50S
HOUGHTON LAKE  MOSUNNY   31  29  92 E8        30.48R
MANISTEE       SUNNY     34  28  80 E8        30.47R
OSCODA         SUNNY     38  31  76 NE8       30.50S
PELLSTON       CLOUDY    31  29  92 SE5       30.51S
TRAVERSE CITY  MOSUNNY   32  28  85 CALM      30.49R
$$
MIZ007>008-015-191400-
EASTERN UPPER MICHIGAN

CITY           SKY/WX    TMP DP  RH WIND       PRES   REMARKS
KINROSS        SUNNY     34  34 100 CALM      30.51S
MACKINAC ISLAN FOG       29  29 100 E3        30.50S VSB 1/2
NEWBERRY       MOSUNNY   28  27  98 SE8       30.48S
S. S. MARIE    SUNNY     29  27  92 E3        30.50F
$$
MIZ004>006-011>014-085-191400-
CENTRAL UPPER MICHIGAN

CITY           SKY/WX    TMP DP  RH WIND       PRES   REMARKS
MANISTIQUE     PTSUNNY   32  29  90 SE9G16    30.48S
ESCANABA       CLOUDY    30  27  86 E7        30.45F
MENOMINEE      PTSUNNY   32  28  86 E7        30.45S
SAWYER-GWINN   SUNNY     28  27  93 SE6       30.41F
$$
MIZ001>003-009>011-084-191400-
WESTERN UPPER MICHIGAN

CITY           SKY/WX    TMP DP  RH WIND       PRES   REMARKS
IRON MOUNTAIN  MOSUNNY   30  24  78 SE8       30.40F
HOUGHTON       PTSUNNY   31  24  75 SE13      30.33F
COPPER HARBOR    N/A     32  27  81 SW9G21    30.37F
IRONWOOD       CLOUDY    36  21  55 SE12G21   30.21R
$$

ABBREVIATIONS USED IN REMARKS
   TC - TEMPERATURE IN CELSIUS
  WCI - WIND CHILL INDEX
   HX - HEAT INDEX
  VSB - VISIBILITY




USA.gov is the U.S. government's official web portal to all federal, state and local government web resources and services.